Regional Weather Roundup
Issued by NWS

Home | Current Version | Previous Version | Graphics & Text | Print | Product List | Glossary On
Versions: 1 2 3 4 5 6 7 8 9 10 11 12 13 14 15 16 17 18 19 20 21 22 23 24 25 26 27 28 29 30 31 32 33 34 35 36 37 38 39 40 41 42 43 44 45 46 47 48 49 50
385
ASUS43 KIND 240909
RWRIN

WEATHER ROUNDUP FOR INDIANA
NATIONAL WEATHER SERVICE INDIANAPOLIS IN
500 AM EDT SAT JUN 24 2017

NOTE: "FAIR" INDICATES FEW OR NO CLOUDS BELOW 12,000 FEET WITH NO
SIGNIFICANT WEATHER AND/OR OBSTRUCTIONS TO VISIBILITY.

* - STATION DOES NOT REPORT WEATHER SUCH AS PRECIPITATION OR FOG.

+ - STATION NOT QUALITY CONTROLLED BY THE NATIONAL WEATHER SERVICE.
    USE DATA WITH CAUTION...ESPECIALLY DEWPOINT AND RELATIVE
    HUMIDITY OBSERVATIONS.

INZ001>003-010>013-019-020-241000-
NORTHWEST INDIANA

CITY           SKY/WX    TMP DP  RH WIND       PRES   REMARKS
GARY /AIRPORT/ PTCLDY    64  54  69 W7        29.89R
KNOX *+        CLEAR     59  52  77 SW6       29.88S
LA PORTE +     CLEAR     62  55  77 W3        29.88S
MICHIGAN CITY+ CLEAR     63  55  77 W6        29.87S
MONTICELLO +   CLEAR     60  57  89 W7        29.89S
VALPARAISO     CLEAR     61  56  83 W7        29.88S

$$

LMZ046-743>745-241000-
SOUTHERN LAKE MICHIGAN

STATION/POSITION TIME  TEMP    WIND        PRES    WAVE
                       AIR SEA DIR/SP/G            HT
                 (UTC) (F)     (DEG/KT/KT) (MB)    (FT)
BURNS HARBOR     0840   66     280/ 14/ 17 1011.9S
MICHIGAN CITY    0840   66     270/ 19/ 21   N/A
5NW MICH CITY    0900   67 68  300/ 14/ 19   N/A     3

$$

INZ004-005-014>016-021>024-241000-
NORTH CENTRAL INDIANA

CITY           SKY/WX    TMP DP  RH WIND       PRES   REMARKS
GOSHEN         CLEAR     61  54  77 W8        29.86R
LOGANSPORT +   MOCLDY    63  54  72 NW7       29.89F
PERU/GRISSOM   PTCLDY    62  58  85 W7        29.87R
ROCHESTER +    PTCLDY    63  59  88 W6        29.88S
SOUTH BEND     CLEAR     60  55  83 W7        29.87R
WARSAW +       PTCLDY    61  55  82 NW9       29.87R

$$

INZ006>009-017-018-025>027-241000-
NORTHEAST INDIANA

CITY           SKY/WX    TMP DP  RH WIND       PRES   REMARKS
AUBURN +       MOCLDY    63  54  72 W7        29.85R
FORT WAYNE     CLOUDY    63  56  78 W9        29.85R
HUNTINGTON +   CLOUDY    62  58  88 W3        29.86R
KENDALLVILLE + PTCLDY   N/A N/A N/A W5        29.86R

$$

INZ028-029-035-036-043>045-051>053-241000-
WEST CENTRAL INDIANA

CITY           SKY/WX    TMP DP  RH WIND       PRES   REMARKS
CRAWFORDSVL +  CLOUDY    59  58  96 NW10      29.92S
GREENCASTLE +  PTCLDY    61  55  82 NW3       29.93S
LAFAYETTE      CLEAR     59  57  93 W7        29.91R
TERRE HAUTE    CLOUDY    64  56  75 NW6       29.94S

$$

INZ030>032-037>040-046>048-054>057-064-065-241000-
CENTRAL INDIANA

CITY           SKY/WX    TMP DP  RH WIND       PRES   REMARKS
CP ATTERBURY + PTCLDY    63  59  88 W6        29.92R
FRANKFORT +    CLOUDY    62  59  88 W7        29.93R
GREENWOOD *+   PTCLDY    63  58  85 W5        29.92S
INDIANAPOLIS   PTCLDY    63  57  81 W10       29.91R
-EAGLE CREEK   PTCLDY    64  56  75 W10       29.90R
KOKOMO +       CLOUDY    61  58  90 W8        29.90R
MARION +       CLOUDY    63  57  82 W9        29.89R
MT COMFORT *+  PTCLDY    61  57  88 W7        29.90R
SHELBYVILLE    MOCLDY    65  58  78 W7        29.90R
ZIONSVILLE +   MOCLDY    61  56  85 W8        29.91S

$$

INZ033-034-041-042-049-050-058-059-241000-
EAST CENTRAL INDIANA

CITY           SKY/WX    TMP DP  RH WIND       PRES   REMARKS
MUNCIE         MOCLDY    65  58  78 W10       29.88R
RICHMOND +     CLEAR     59  59 100 W7        29.90R

$$

INZ060-061-067>069-081>083-085>088-241000-
SOUTHWEST INDIANA

CITY           SKY/WX    TMP DP  RH WIND       PRES   REMARKS
EVANSVILLE     MOCLDY    66  60  81 NW6       29.96R
HUNTINGBURG *+ PTCLDY    66  62  87 NW6       29.95R
WASHINGTON +   MOCLDY    63  59  88 NW5       29.94S

$$

INZ062-063-066-070>080-084-089>092-241000-
SOUTH CENTRAL AND SOUTHEAST INDIANA

CITY           SKY/WX    TMP DP  RH WIND       PRES   REMARKS
BEDFORD +      PTCLDY    63  59  88 CALM      29.93R
BLOOMINGTON    CLOUDY    64  57  78 NW5       29.93R
MADISON *+     CLEAR     63  63 100 W3        29.93S
NORTH VERNON + PTCLDY    63  61  94 W6        29.92R
SEYMOUR +      PTCLDY    64  64 100 W5        29.92R

$$





USA.gov is the U.S. government's official web portal to all federal, state and local government web resources and services.